| time (UTC) | temp C | wind direction | speed KPH | gust KPH | rain 1hr cm | rain 24hr cm | rain mn cm | humidity % | barometer mb |
| 20260506020047 | 10 | 38 | 8.0 | 24.1 | 0.00 | 0.05 | 0.00 | 76 | 1011.2 |
| 20260506014546 | 10 | 48 | 8.0 | 30.6 | 0.00 | 0.05 | 0.00 | 76 | 1011.1 |
| 20260506013045 | 10 | 28 | 12.9 | 27.4 | 0.00 | 0.05 | 0.00 | 76 | 1010.6 |
| 20260506011539 | 10 | 40 | 11.3 | 29.0 | 0.00 | 0.05 | 0.00 | 76 | 1010.3 |
| 20260506010037 | 10 | 355 | 9.7 | 19.3 | 0.00 | 0.05 | 0.00 | 77 | 1010.3 |
| 20260506004501 | 10 | 30 | 11.3 | 20.9 | 0.00 | 0.05 | 0.00 | 76 | 1010.1 |
| 20260506003100 | 10 | 71 | 8.0 | 24.1 | 0.00 | 0.05 | 0.00 | 76 | 1010.3 |
| 20260506001559 | 11 | 25 | 11.3 | 29.0 | 0.00 | 0.05 | 0.00 | 75 | 1009.8 |
| 20260506000026 | 11 | 5 | 6.4 | 25.7 | 0.00 | 0.05 | 0.00 | 75 | 1010.0 |
| 20260505234619 | 11 | 34 | 9.7 | 29.0 | 0.00 | 0.05 | 0.00 | 75 | 1010.0 |
| 20260505233023 | 11 | 9 | 11.3 | 25.7 | 0.00 | 0.05 | 0.00 | 74 | 1009.8 |
| 20260505231513 | 11 | 40 | 8.0 | 24.1 | 0.00 | 0.05 | 0.00 | 73 | 1009.6 |
| 20260505230001 | 11 | 30 | 11.3 | 30.6 | 0.00 | 0.05 | 0.00 | 72 | 1009.4 |
| 20260505224541 | 11 | 84 | 12.9 | 25.7 | 0.00 | 0.05 | 0.00 | 71 | 1008.9 |
| 20260505223001 | 12 | 34 | 16.1 | 29.0 | 0.00 | 0.05 | 0.00 | 71 | 1008.9 |
| 20260505221606 | 12 | 46 | 8.0 | 19.3 | 0.00 | 0.05 | 0.00 | 72 | 1008.3 |
| 20260505220015 | 12 | 11 | 11.3 | 20.9 | 0.00 | 0.05 | 0.00 | 71 | 1008.6 |
| 20260505214619 | 12 | 61 | 9.7 | 25.7 | 0.00 | 0.05 | 0.00 | 71 | 1008.5 |
| 20260505213027 | 12 | 42 | 11.3 | 24.1 | 0.00 | 0.05 | 0.00 | 71 | 1008.2 |
| 20260505211524 | 12 | 9 | 12.9 | 33.8 | 0.00 | 0.05 | 0.00 | 71 | 1008.4 |
| 20260505210023 | 12 | 360 | 14.5 | 30.6 | 0.00 | 0.05 | 0.00 | 72 | 1008.0 |
| 20260505204525 | 12 | 25 | 14.5 | 29.0 | 0.00 | 0.05 | 0.00 | 72 | 1008.2 |
| 20260505203023 | 12 | 46 | 11.3 | 24.1 | 0.00 | 0.05 | 0.00 | 73 | 1008.0 |
| 20260505201508 | 12 | 355 | 12.9 | 25.7 | 0.00 | 0.05 | 0.00 | 74 | 1007.9 |
| 20260505200025 | 12 | 349 | 8.0 | 25.7 | 0.00 | 0.05 | 0.00 | 75 | 1008.0 |
| 20260505194519 | 12 | 9 | 11.3 | 30.6 | 0.00 | 0.05 | 0.00 | 76 | 1008.2 |
| 20260505193017 | 13 | 5 | 14.5 | 27.4 | 0.00 | 0.05 | 0.00 | 75 | 1007.8 |
| 20260505191517 | 13 | 25 | 6.4 | 27.4 | 0.00 | 0.05 | 0.00 | 77 | 1007.4 |
| 20260505190014 | 13 | 23 | 4.8 | 22.5 | 0.00 | 0.05 | 0.00 | 77 | 1007.2 |
| 20260505184522 | 13 | 59 | 14.5 | 30.6 | 0.00 | 0.05 | 0.00 | 77 | 1007.2 |
| 20260505183031 | 13 | 21 | 9.7 | 22.5 | 0.00 | 0.05 | 0.00 | 79 | 1007.0 |
| 20260505181509 | 12 | 36 | 8.0 | 24.1 | 0.00 | 0.05 | 0.00 | 80 | 1007.3 |
| 20260505180006 | 12 | 38 | 14.5 | 32.2 | 0.00 | 0.05 | 0.00 | 80 | 1006.7 |
| 20260505174504 | 13 | 355 | 9.7 | 27.4 | 0.00 | 0.05 | 0.00 | 81 | 1006.7 |
| 20260505173004 | 13 | 48 | 11.3 | 33.8 | 0.00 | 0.05 | 0.00 | 82 | 1006.4 |
| 20260505171558 | 13 | 36 | 14.5 | 27.4 | 0.00 | 0.05 | 0.00 | 82 | 1006.1 |
| 20260505170100 | 13 | 24 | 12.9 | 29.0 | 0.00 | 0.05 | 0.00 | 84 | 1005.6 |
| 20260505164616 | 13 | 62 | 12.9 | 35.4 | 0.00 | 0.05 | 0.00 | 83 | 1005.6 |
| 20260505163036 | 13 | 346 | 9.7 | 25.7 | 0.00 | 0.05 | 0.00 | 84 | 1005.2 |
| 20260505161627 | 13 | 57 | 14.5 | 29.0 | 0.00 | 0.05 | 0.00 | 84 | 1005.4 |
| 20260505153008 | 14 | 350 | 14.5 | 32.2 | 0.00 | 0.05 | 0.00 | 83 | 1004.5 |
| 20260505151503 | 15 | 29 | 12.9 | 30.6 | 0.00 | 0.05 | 0.00 | 83 | 1004.5 |
| 20260505124545 | 18 | 99 | 1.6 | 14.5 | 0.00 | 0.05 | 0.00 | 82 | 1003.1 |
| 20260505123039 | 18 | 55 | 3.2 | 11.3 | 0.00 | 0.05 | 0.00 | 82 | 1002.9 |
| 20260505121541 | 18 | 133 | 6.4 | 16.1 | 0.00 | 0.05 | 0.00 | 82 | 1002.4 |
| 20260505120046 | 18 | 141 | 6.4 | 19.3 | 0.00 | 0.05 | 0.00 | 82 | 1002.4 |
| 20260505114534 | 18 | 114 | 3.2 | 16.1 | 0.00 | 0.05 | 0.00 | 82 | 1002.3 |
| 20260505113034 | 18 | 182 | 3.2 | 9.7 | 0.00 | 0.05 | 0.00 | 82 | 1002.2 |
| 20260505111532 | 18 | 150 | 3.2 | 9.7 | 0.00 | 0.05 | 0.00 | 83 | 1002.3 |
| 20260505101536 | 18 | 66 | 1.6 | 8.0 | 0.00 | 0.05 | 0.00 | 84 | 1001.6 |
| 20260505100030 | 18 | 165 | 4.8 | 12.9 | 0.00 | 0.05 | 0.00 | 85 | 1001.5 |
| 20260505094531 | 17 | 142 | 4.8 | 9.7 | 0.00 | 0.05 | 0.00 | 85 | 1001.5 |
| 20260505093028 | 17 | 140 | 4.8 | 12.9 | 0.00 | 0.05 | 0.00 | 85 | 1001.5 |
| 20260505091527 | 17 | 157 | 3.2 | 14.5 | 0.00 | 0.05 | 0.00 | 84 | 1001.6 |
| 20260505090025 | 18 | 157 | 3.2 | 14.5 | 0.00 | 0.05 | 0.00 | 83 | 1001.6 |
| 20260505084533 | 18 | 178 | 4.8 | 14.5 | 0.00 | 0.05 | 0.00 | 83 | 1001.4 |
| 20260505083020 | 18 | 150 | 3.2 | 12.9 | 0.00 | 0.05 | 0.00 | 82 | 1001.5 |
| 20260505081518 | 18 | 175 | 4.8 | 12.9 | 0.00 | 0.05 | 0.00 | 80 | 1001.5 |
| 20260505080015 | 18 | 111 | 1.6 | 11.3 | 0.00 | 0.05 | 0.00 | 79 | 1001.7 |
| 20260505074614 | 19 | 162 | 3.2 | 14.5 | 0.00 | 0.05 | 0.00 | 78 | 1001.8 |
| 20260505073015 | 20 | 86 | 1.6 | 11.3 | 0.00 | 0.05 | 0.00 | 79 | 1002.1 |
| 20260505071512 | 20 | 92 | 3.2 | 14.5 | 0.00 | 0.05 | 0.00 | 79 | 1002.4 |
| 20260505070015 | 19 | 116 | 3.2 | 9.7 | 0.00 | 0.05 | 0.00 | 79 | 1002.5 |
| 20260505064510 | 19 | 33 | 3.2 | 8.0 | 0.00 | 0.05 | 0.00 | 80 | 1002.7 |
| 20260505063011 | 19 | 28 | 6.4 | 16.1 | 0.00 | 0.05 | 0.00 | 81 | 1003.1 |
| 20260505061508 | 19 | 19 | 6.4 | 14.5 | 0.00 | 0.05 | 0.00 | 81 | 1003.2 |
| 20260505060006 | 19 | 21 | 4.8 | 9.7 | 0.00 | 0.05 | 0.00 | 80 | 1003.2 |
| 20260505054505 | 19 | 16 | 4.8 | 8.0 | 0.00 | 0.05 | 0.00 | 81 | 1003.1 |
| 20260505053001 | 19 | 139 | 0.0 | 3.2 | 0.00 | 0.05 | 0.00 | 79 | 1002.6 |
| 20260505051558 | 19 | 138 | 4.8 | 14.5 | 0.00 | 0.05 | 0.00 | 78 | 1002.1 |
| 20260505041557 | 19 | 147 | 8.0 | 16.1 | 0.05 | 0.05 | 0.05 | 79 | 1001.8 |
| 20260505040055 | 19 | 168 | 8.0 | 22.5 | 0.05 | 0.05 | 0.05 | 79 | 1002.1 |
| 20260505034549 | 20 | 196 | 8.0 | 17.7 | 0.03 | 0.03 | 0.03 | 75 | 1002.0 |
| 20260505033045 | 21 | 116 | 8.0 | 17.7 | 0.00 | 0.00 | 0.00 | 68 | 1002.4 |
| 20260505031553 | 21 | 209 | 6.4 | 14.5 | 0.00 | 0.00 | 0.00 | 67 | 1002.6 |
| 20260505030043 | 21 | 140 | 8.0 | 14.5 | 0.00 | 0.00 | 0.00 | 67 | 1002.9 |
| 20260505024555 | 22 | 188 | 6.4 | 16.1 | 0.00 | 0.00 | 0.00 | 66 | 1002.9 |
| 20260505023041 | 22 | 188 | 3.2 | 11.3 | 0.00 | 0.00 | 0.00 | 66 | 1003.2 |
| 20260505021541 | 22 | 183 | 4.8 | 14.5 | 0.00 | 0.00 | 0.00 | 66 | 1002.9 |